DLH2GY LZIB-EDDH

Flight info

Callsign DLH2GY
Flight time N/A
Altitude 36000
Route BERVA P10 MAVOR DCT HDO DCT BOLBO M748 RARUP
Aircraft A321/M-SDE3FGHIRWY/LB1

Departure

Time 2026-05-01 14:36
Airport M. R. Štefánik Airport (LZIB)

Arrival

Time N/A
Airport Hamburg Helmut Schmidt Airport (EDDH)
Time Latitude Longitude Altitude Speed Heading
2026-05-01 14:19 48.16939 17.20109 436 ft 0 kts 314°
2026-05-01 14:26 48.16923 17.20137 426 ft 4 kts 301°
2026-05-01 14:27 48.16913 17.20172 423 ft 4 kts 271°
2026-05-01 14:27 48.16918 17.20203 423 ft 2 kts 224°
2026-05-01 14:27 48.16919 17.20204 423 ft 0 kts 223°
2026-05-01 14:31 48.16906 17.20185 424 ft 3 kts 224°
2026-05-01 14:31 48.16887 17.20158 432 ft 4 kts 223°
2026-05-01 14:31 48.16863 17.20142 431 ft 4 kts 187°
2026-05-01 14:31 48.16845 17.20154 434 ft 3 kts 140°
2026-05-01 14:32 48.16828 17.20178 435 ft 4 kts 137°
2026-05-01 14:32 48.16803 17.20215 424 ft 7 kts 135°
2026-05-01 14:32 48.16763 17.20276 436 ft 9 kts 134°
2026-05-01 14:32 48.16715 17.20344 433 ft 9 kts 148°
2026-05-01 14:33 48.16664 17.20317 440 ft 8 kts 221°
2026-05-01 14:33 48.16621 17.20262 427 ft 8 kts 220°
2026-05-01 14:33 48.16578 17.20206 435 ft 9 kts 220°
2026-05-01 14:33 48.16525 17.20140 443 ft 11 kts 219°
2026-05-01 14:34 48.16464 17.20063 448 ft 13 kts 221°
2026-05-01 14:34 48.16393 17.19970 450 ft 13 kts 222°
2026-05-01 14:34 48.16323 17.19877 452 ft 13 kts 221°
2026-05-01 14:34 48.16252 17.19793 454 ft 13 kts 205°
2026-05-01 14:35 48.16167 17.19822 456 ft 13 kts 140°
2026-05-01 14:35 48.16108 17.19911 456 ft 10 kts 135°
2026-05-01 14:35 48.16117 17.19992 454 ft 11 kts 41°
2026-05-01 14:35 48.16206 17.20118 452 ft 40 kts 43°
2026-05-01 14:36 48.16612 17.20703 435 ft 119 kts 44°
2026-05-01 14:36 48.17352 17.21761 518 ft 168 kts 40°
2026-05-01 14:36 48.18156 17.22965 1349 ft 162 kts 41°
2026-05-01 14:36 48.18984 17.24178 2028 ft 175 kts 41°
2026-05-01 14:37 48.19921 17.25498 2393 ft 197 kts 41°
2026-05-01 14:37 48.20968 17.26978 2862 ft 218 kts 41°
2026-05-01 14:37 48.22142 17.28586 3206 ft 244 kts 39°
2026-05-01 14:37 48.23483 17.30232 3670 ft 250 kts 34°
2026-05-01 14:38 48.24918 17.31747 4008 ft 252 kts 32°
2026-05-01 14:38 48.26382 17.33209 4276 ft 253 kts 31°
2026-05-01 14:38 48.27843 17.34637 4499 ft 253 kts 32°
2026-05-01 14:38 48.29312 17.36125 4732 ft 254 kts 32°
2026-05-01 14:39 48.30777 17.37569 4950 ft 254 kts 30°
2026-05-01 14:39 48.32290 17.38958 4996 ft 255 kts 29°
2026-05-01 14:39 48.33839 17.40279 5328 ft 254 kts 27°
2026-05-01 14:39 48.35393 17.41608 6241 ft 257 kts 29°
2026-05-01 14:40 48.36915 17.42960 7166 ft 257 kts 30°
2026-05-01 14:40 48.38449 17.44342 8076 ft 256 kts 30°
2026-05-01 14:40 48.39983 17.45741 8949 ft 258 kts 31°
2026-05-01 14:40 48.41524 17.47151 9821 ft 260 kts 31°
2026-05-01 14:41 48.43084 17.48536 10620 ft 263 kts 29°
2026-05-01 14:41 48.44830 17.49663 10945 ft 284 kts 20°
2026-05-01 14:41 48.46801 17.50374 11147 ft 307 kts 11°
2026-05-01 14:41 48.48988 17.50886 11330 ft 327 kts 11°
2026-05-01 14:42 48.51277 17.51438 11796 ft 336 kts 12°
2026-05-01 14:42 48.53610 17.52012 12406 ft 342 kts 12°
2026-05-01 14:42 48.55974 17.52603 13077 ft 345 kts 12°
2026-05-01 14:42 48.58320 17.53198 13774 ft 347 kts 12°
2026-05-01 14:43 48.60703 17.53813 14453 ft 348 kts 12°
2026-05-01 14:43 48.63146 17.54137 14943 ft 357 kts
2026-05-01 14:43 48.65637 17.54071 15598 ft 358 kts
2026-05-01 14:43 48.68139 17.54026 16152 ft 362 kts
2026-05-01 14:44 48.70677 17.53975 16709 ft 366 kts
2026-05-01 14:44 48.75778 17.53868 17829 ft 371 kts
2026-05-01 14:44 48.78384 17.53740 18368 ft 377 kts 358°
2026-05-01 14:45 48.80986 17.52915 18837 ft 387 kts 347°
2026-05-01 14:45 48.85703 17.48739 19724 ft 408 kts 323°
2026-05-01 14:45 48.87789 17.45789 20189 ft 411 kts 323°
2026-05-01 14:46 48.89891 17.42807 20659 ft 414 kts 323°
2026-05-01 14:46 48.94133 17.36782 21592 ft 420 kts 323°
2026-05-01 14:46 48.96247 17.33775 22036 ft 423 kts 323°
2026-05-01 14:47 48.98408 17.30700 22480 ft 425 kts 323°
2026-05-01 14:47 49.00578 17.27610 22928 ft 428 kts 323°
2026-05-01 14:47 49.02737 17.24533 23371 ft 431 kts 323°
2026-05-01 14:48 49.07142 17.18221 24158 ft 436 kts 323°
2026-05-01 14:48 49.09367 17.15025 24538 ft 439 kts 322°
2026-05-01 14:48 49.13811 17.08638 25296 ft 443 kts 322°
2026-05-01 14:49 49.18325 17.02155 26055 ft 447 kts 322°
2026-05-01 14:49 49.22848 16.95636 26781 ft 451 kts 322°
2026-05-01 14:50 49.25905 16.91208 27236 ft 453 kts 322°
2026-05-01 14:50 49.32018 16.82343 28050 ft 458 kts 322°
2026-05-01 14:51 49.34338 16.78975 28329 ft 460 kts 322°
2026-05-01 14:51 49.38984 16.72201 29086 ft 458 kts 322°
2026-05-01 14:52 49.43565 16.65503 29895 ft 455 kts 322°
2026-05-01 14:52 49.45864 16.62133 30299 ft 454 kts 322°
2026-05-01 14:52 49.50426 16.55441 31007 ft 451 kts 322°
2026-05-01 14:53 49.52669 16.52142 31356 ft 450 kts 321°
2026-05-01 14:53 49.54928 16.48808 31709 ft 448 kts 321°
2026-05-01 14:53 49.57177 16.45488 32065 ft 447 kts 321°
2026-05-01 14:53 49.59422 16.42179 32423 ft 445 kts 321°
2026-05-01 14:54 49.61660 16.38877 32775 ft 444 kts 321°
2026-05-01 14:54 49.63859 16.35625 33124 ft 443 kts 321°
2026-05-01 14:54 49.66079 16.32338 33469 ft 441 kts 321°
2026-05-01 14:54 49.68298 16.29051 33823 ft 440 kts 321°
2026-05-01 14:55 49.70507 16.25771 34175 ft 439 kts 321°
2026-05-01 14:55 49.72699 16.22505 34484 ft 438 kts 321°
2026-05-01 14:55 49.74864 16.19275 34750 ft 437 kts 321°
2026-05-01 14:55 49.77048 16.16015 35001 ft 436 kts 321°
2026-05-01 14:56 49.79233 16.12748 35267 ft 436 kts 321°
2026-05-01 14:56 49.81424 16.09471 35530 ft 436 kts 321°
2026-05-01 14:56 49.83602 16.06210 35781 ft 435 kts 321°
2026-05-01 14:56 49.85755 16.02986 36025 ft 435 kts 321°
2026-05-01 14:57 49.87940 15.99706 36272 ft 435 kts 320°
2026-05-01 14:57 49.94466 15.89892 36350 ft 437 kts 320°
2026-05-01 14:58 49.98805 15.83340 36355 ft 437 kts 320°
2026-05-01 14:58 50.03167 15.76729 36354 ft 437 kts 320°
2026-05-01 14:59 50.07518 15.70118 36354 ft 437 kts 320°
2026-05-01 14:59 50.11852 15.63529 36353 ft 437 kts 320°
2026-05-01 15:00 50.18381 15.53554 36349 ft 438 kts 320°
2026-05-01 15:01 50.22707 15.46912 36345 ft 438 kts 320°
2026-05-01 15:01 50.27065 15.40217 36343 ft 438 kts 320°
2026-05-01 15:02 50.31390 15.33569 36358 ft 438 kts 319°
2026-05-01 15:02 50.35740 15.26838 36353 ft 438 kts 319°
2026-05-01 15:03 50.40077 15.20106 36351 ft 438 kts 319°
2026-05-01 15:03 50.44387 15.13400 36354 ft 439 kts 319°
2026-05-01 15:04 50.48727 15.06644 36356 ft 439 kts 319°
2026-05-01 15:04 50.53037 14.99916 36356 ft 439 kts 319°
2026-05-01 15:05 50.57373 14.93134 36355 ft 439 kts 319°
2026-05-01 15:05 50.61679 14.86377 36360 ft 439 kts 319°
2026-05-01 15:06 50.66031 14.79513 36363 ft 439 kts 318°
2026-05-01 15:06 50.70327 14.72723 36363 ft 439 kts 318°
2026-05-01 15:07 50.74644 14.65879 36362 ft 440 kts 318°
2026-05-01 15:07 50.78943 14.59051 36364 ft 440 kts 318°
2026-05-01 15:08 50.83261 14.52175 36365 ft 440 kts 318°
2026-05-01 15:08 50.87556 14.45331 36370 ft 440 kts 318°
2026-05-01 15:09 50.91862 14.38427 36367 ft 440 kts 317°
2026-05-01 15:09 50.96303 14.31747 36367 ft 439 kts 322°
2026-05-01 15:10 51.00937 14.25532 36371 ft 439 kts 323°
2026-05-01 15:10 51.06971 14.17466 36379 ft 439 kts 322°
2026-05-01 15:11 51.13902 14.07879 36383 ft 440 kts 321°
2026-05-01 15:12 51.18487 14.01478 36385 ft 440 kts 321°
2026-05-01 15:12 51.25416 13.91832 36387 ft 441 kts 321°
2026-05-01 15:14 51.36940 13.75682 36378 ft 441 kts 321°
2026-05-01 15:14 51.43849 13.65953 36373 ft 442 kts 321°
2026-05-01 15:15 51.53061 13.52914 36374 ft 443 kts 321°
2026-05-01 15:16 51.62295 13.39775 36372 ft 443 kts 321°
2026-05-01 15:18 51.73820 13.23262 36370 ft 444 kts 320°
2026-05-01 15:19 51.83020 13.09985 36368 ft 444 kts 320°
2026-05-01 15:19 51.89908 13.00003 36362 ft 445 kts 320°
2026-05-01 15:20 51.96817 12.89950 36359 ft 445 kts 320°
2026-05-01 15:21 52.01395 12.83254 36364 ft 445 kts 319°
2026-05-01 15:21 52.06000 12.76494 36376 ft 445 kts 319°
2026-05-01 15:22 52.12892 12.66376 36379 ft 446 kts 319°
2026-05-01 15:22 52.17471 12.59634 36379 ft 446 kts 319°
2026-05-01 15:23 52.22084 12.52824 36377 ft 446 kts 319°
2026-05-01 15:23 52.26636 12.46016 36376 ft 446 kts 317°
2026-05-01 15:24 52.30265 12.40001 36380 ft 447 kts 314°
2026-05-01 15:24 52.34574 12.32621 36376 ft 447 kts 318°
2026-05-01 15:25 52.39146 12.25809 36377 ft 447 kts 319°
2026-05-01 15:25 52.44596 12.18005 36373 ft 447 kts 320°
2026-05-01 15:26 52.48498 12.12430 36375 ft 447 kts 320°
2026-05-01 15:26 52.53181 12.05660 36373 ft 448 kts 319°
2026-05-01 15:27 52.57850 11.98840 36372 ft 449 kts 319°
2026-05-01 15:28 52.64883 11.88611 35948 ft 452 kts 321°
2026-05-01 15:28 52.67326 11.85358 35651 ft 451 kts 323°
2026-05-01 15:28 52.69826 11.82229 35332 ft 451 kts 324°
2026-05-01 15:29 52.74852 11.76162 34723 ft 449 kts 324°
2026-05-01 15:29 52.77360 11.73086 34192 ft 445 kts 323°
2026-05-01 15:29 52.82284 11.66860 32382 ft 452 kts 323°
2026-05-01 15:30 52.87270 11.60421 30613 ft 457 kts 323°
2026-05-01 15:31 52.97312 11.47456 27329 ft 448 kts 323°
2026-05-01 15:31 53.02124 11.41242 26283 ft 433 kts 323°
2026-05-01 15:32 53.06817 11.35213 25233 ft 421 kts 323°
2026-05-01 15:32 53.11428 11.29309 23971 ft 416 kts 322°
2026-05-01 15:33 53.17320 11.19365 22813 ft 398 kts 315°
2026-05-01 15:34 53.23270 11.09322 21905 ft 411 kts 314°